Location: Newark
(58.8333°N, 23.5833°E)
Time: 22:33:44
(UTC+00:00)

METEOR M2 - Pass Details

Date: 13 December 2019
Orbit: 819 x 827 km, 98.5° (Epoch: 23 January)

Event Time Altitude Azimuth Distance (km) Brightness Sun altitude
Exits shadow 16:59:30 35° 17° (NNE) 1,299 ? -24.7°
Drops below altitude 10° 17:02:59 10° 349° (N) 2,432 ? -25.2°
Sets 17:05:25 0° 344° (NNW) 3,368 ? -25.5°
